Regional Weather Roundup
Issued by NWS

Home | Current Version | Previous Version | Text Only | Print | Product List | Glossary Off
Versions: 1 2 3 4 5 6 7 8 9 10 11 12 13 14 15 16 17 18 19 20 21 22 23 24 25 26 27 28 29 30 31 32 33 34 35 36 37 38 39 40 41 42 43 44 45 46 47 48 49 50

000
ASUS43 KFSD 241702
RWRSD

WEATHER ROUNDUP FOR SOUTH DAKOTA
NATIONAL WEATHER SERVICE SIOUX FALLS SD
1200 PM CDT FRI OCT 24 2014

NOTE: "FAIR" INDICATES FEW OR NO CLOUDS BELOW 12,000 FEET WITH NO
SIGNIFICANT WEATHER AND/OR OBSTRUCTIONS TO VISIBILITY.


SDZ001>005-009-010-012>017-241800-
NORTHWEST AND NORTH CENTRAL SOUTH DAKOTA

CITY           SKY/WX    TMP DP  RH WIND       PRES   REMARKS
FAITH            N/A     66  35  31 NW14      29.97R
MOBRIDGE       MOSUNNY   58  40  51 S3        29.90R
$$

SDZ012>016-024>037-041>051-057-063-072>074-241800-
SOUTHWEST AND SOUTH CENTRAL SOUTH DAKOTA

CITY           SKY/WX    TMP DP  RH WIND       PRES   REMARKS
RAPID CTY ARPT PTSUNNY   68  34  28 N20       30.01R
PIERRE         PTSUNNY   60  38  43 W6        29.93R
CUSTER         MOSUNNY   66  28  24 NE7       30.11S
PHILIP         MOSUNNY   63  41  44 VRB3      29.96S
PINE RIDGE     MOSUNNY   69  38  32 W8        30.03S
SPEARFISH      FAIR      63  32  31 N9        30.08R
WINNER         FAIR      66  33  29 NW5       29.96R
$$

SDZ004>011-016>023-039-040-241800-
NORTHEAST SOUTH DAKOTA

CITY           SKY/WX    TMP DP  RH WIND       PRES   REMARKS
ABERDEEN       MOSUNNY   63  40  42 W6        29.89S
WATERTOWN      PTSUNNY   60  46  59 W5        29.89S
SISSETON         N/A     73  35  25 W6        29.84R
$$

SDZ017-020-022-023-036>040-048>070-241800-
SOUTHEAST SOUTH DAKOTA

CITY           SKY/WX    TMP DP  RH WIND       PRES   REMARKS
SIOUX FALLS    PTSUNNY   65  53  65 NW3       29.91R
HURON          PTSUNNY   62  42  47 CALM      29.91S
CHAMBERLAIN    PTSUNNY   62  37  39 W6        29.94S
MITCHELL       MOSUNNY   61  42  49 W3        29.92F
YANKTON        PTSUNNY   61  46  59 NW7       29.93R
$$

ABBREVIATIONS USED IN REMARKS
   TC - TEMPERATURE IN CELSIUS
  WCI - WIND CHILL INDEX
   HX - HEAT INDEX
  VSB - VISIBILITY




USA.gov is the U.S. government's official web portal to all federal, state and local government web resources and services.